This demonstration page uses our WeatherBlox Daily Observations layout. Learn more.

Left ArrowRight Arrow

36.19886, -115.1175

Hourly Observations for January 14, 2022

Temp ( °F °C ) Dew Point ( °F °C ) Humidity (%) Winds ( mph kmh ) Pressure ( in mb ) Visibility ( mi km ) Precip ( " mm )
12:53 am 00:53 Clear 52 11.1 24 -4.4 34 34 NNW 10 17 30.14 1021 10 16 0.00 0.00
1:53 am 01:53 Clear 50 10 23 -5 35 35 N 6 9 30.16 1022 10 16 0.00 0.00
2:53 am 02:53 Clear 50 10 24 -4.4 36 36 W 9 15 30.17 1022 10 16 0.00 0.00
3:53 am 03:53 Clear 49 9.4 22 -5.6 35 35 NW 9 15 30.17 1022 10 16 0.00 0.00
4:53 am 04:53 Clear 48 8.9 23 -5 37 37 NNW 8 13 30.20 1023 10 16 0.00 0.00
5:53 am 05:53 Clear 55 12.8 20 -6.7 25 25 N 12 19 30.22 1023 10 16 0.00 0.00
6:53 am 06:53 Sunny 51 10.6 21 -6.1 31 31 NW 9 15 30.25 1024 10 16 0.00 0.00
7:53 am 07:53 Sunny 59 15 21 -6.1 23 23 NNW 14 22 30.27 1025 10 16 0.00 0.00
8:53 am 08:53 Sunny 62 16.7 22 -5.6 21 21 NNW 14 22 30.30 1026 10 16 0.00 0.00
9:53 am 09:53 Sunny 64 17.8 22 -5.6 20 20 NNW 17 28 30.32 1027 10 16 0.00 0.00
10:53 am 10:53 Sunny 65 18.3 21 -6.1 19 19 N 14 22 30.32 1027 10 16 0.00 0.00
11:53 am 11:53 Sunny 66 18.9 22 -5.6 19 19 NNW 17 28 30.30 1026 10 16 0.00 0.00
12:53 pm 12:53 Sunny 66 18.9 21 -6.1 18 18 N 9 15 30.28 1025 10 16 0.00 0.00
1:53 pm 13:53 Sunny 67 19.4 22 -5.6 18 18 NW 8 13 30.26 1025 10 16 0.00 0.00
2:53 pm 14:53 Sunny 68 20 22 -5.6 17 17 N 10 17 30.27 1025 10 16 0.00 0.00
3:53 pm 15:53 Sunny 67 19.4 22 -5.6 18 18 NNE 8 13 30.28 1025 10 16 0.00 0.00
4:53 pm 16:53 Clear 64 17.8 22 -5.6 20 20 NNW 8 13 30.30 1026 10 16 0.00 0.00
5:53 pm 17:53 Clear 62 16.7 22 -5.6 21 21 N 9 15 30.32 1027 10 16 0.00 0.00
6:53 pm 18:53 Clear 60 15.6 22 -5.6 23 23 W 5 7 30.35 1028 10 16 0.00 0.00
7:53 pm 19:53 Clear 58 14.4 22 -5.6 25 25 N 9 15 30.35 1028 10 16 0.00 0.00
8:53 pm 20:53 Clear 56 13.3 22 -5.6 27 27 N 9 15 30.37 1028 10 16 0.00 0.00
9:53 pm 21:53 Clear 55 12.8 22 -5.6 28 28 N 9 15 30.37 1029 10 16 0.00 0.00
10:53 pm 22:53 Clear 56 13.3 23 -5 28 28 N 8 13 30.39 1029 10 16 0.00 0.00
11:53 pm 23:53 Clear 54 12.2 23 -5 30 30 N 10 17 30.39 1029 10 16 0.00 0.00

Powered by AerisWeather